Vertical_Velocity
-1 -1 -1 -1 -2 -1 -2 -5 -5 -5 -3 -3 -5 -1 -1 -0 4 0 -4 3 -6 2 -2 6 3 2 3 1 2 6 12 -5 -11 3 -2 -2 -3 -5 0 5 14 -4 14 21 0
3 1 -0 0 0 -0 0 0 -0 -4 -2 -3 -4 -4 -1 1 -0 8 -10 -5 -2 -6 3 -2 -1 3 -6 -4 0 0 2 -13 -5 5 3 -6 3 -5 -1 1 9 9 -10 -5 4
-2 3 2 -2 -1 0 -2 -3 0 1 -0 -4 -1 -2 -1 -2 -4 -6 1 -1 -3 3 6 3 6 4 -3 3 1 2 -14 4 -3 5 9 5 1 -4 2 -1 -0 -3 -4 -9 1
-2 -6 -7 -6 -5 -3 -1 -2 -4 -4 -5 -0 -4 -5 -2 1 -4 -8 1 3 0 1 4 5 5 -5 4 -10 -1 4 -2 -5 -3 10 -0 -5 3 3 -4 -7 23 -1 -6 7 1
-2 -1 -0 -2 -3 -2 -0 -1 -1 -2 -1 -0 -1 -2 -3 -7 -14 18 -2 5 -3 -1 3 3 2 11 -16 11 5 -5 1 -2 -3 -0 -4 0 -1 1 2 -5 1 4 30 2 5
-3 -2 0 1 -0 -1 -1 1 -1 2 1 -1 -2 -2 0 -26 0 -3 7 -4 6 -1 1 1 0 10 -1 -11 -14 24 -6 -7 -2 0 1 -1 -5 11 -1 -4 -3 -0 -3 -5 2
-1 -3 -3 -3 -4 -5 -6 -6 -6 -2 3 -1 -0 0 -16 16 1 -2 1 3 2 5 1 6 4 -2 26 4 13 -9 17 13 -10 1 -4 7 -7 -8 -2 5 -6 -4 0 2 -1
-2 -4 -3 -2 -9 -3 -0 -4 -8 -8 -5 -1 3 -2 -31 -1 -1 -0 -2 1 4 3 1 6 13 -6 -1 7 0 3 16 9 -15 6 -5 22 -24 -4 -3 8 -2 0 1 2 -0
-4 1 1 3 -1 -5 -2 3 -2 -1 -2 2 -2 1 -5 -11 -1 -0 2 2 1 4 8 11 -1 9 6 11 7 -6 -13 -10 1 -4 7 8 -7 -13 10 -2 1 1 -2 3 4
4 1 6 7 3 0 -2 -5 2 0 -4 -0 3 -2 -2 0 -4 -1 1 6 5 1 5 8 2 -1 -5 9 -35 -22 6 4 -0 -20 6 1 -3 -13 0 2 -3 -1 -3 3 2
4 6 2 4 7 2 5 -3 4 -11 -5 6 10 -14 9 -1 -5 9 -1 -0 3 4 2 1 1 -37 -31 11 15 11 7 0 -6 -10 19 -12 -0 -9 -6 4 -6 0 -3 -2 4
2 2 12 5 12 -3 -0 11 2 0 -15 7 0 -2 1 -0 -6 -2 0 -1 2 -1 0 -2 -24 -25 50 6 5 4 -0 -13 3 -1 34 9 3 0 1 -9 -3 -1 -3 -2 5
1 1 7 9 6 5 9 12 6 -2 -5 -3 -1 -2 -0 0 -3 -1 -0 -3 -3 -6 4 -0 -36 21 9 -3 14 -5 1 -8 -3 20 -2 7 4 1 -14 11 -1 -2 4 0 -3
0 7 1 9 15 2 18 6 1 -1 -5 2 2 -1 -1 -2 -4 -3 1 -3 -2 -4 -0 -14 17 -6 14 -2 16 14 -2 5 -2 21 -5 6 -13 -8 -4 -1 -5 -0 -2 -3 6
3 12 1 0 6 28 9 2 -3 -8 3 -4 -4 -6 -3 -1 -2 5 -1 7 -6 -2 21 -36 2 -2 -6 -37 22 -49 21 0 -3 -4 23 -10 28 -50 18 -8 -10 -6 -7 -4 -6
5 -3 1 10 21 11 9 0 -4 -5 -5 0 -0 1 -1 2 4 -4 -0 1 -5 -3 6 -15 -12 10 -9 12 4 22 10 9 6 19 25 -13 1 -15 -12 -19 -0 1 -9 -4 -1
4 1 3 1 12 10 0 -2 -6 -1 -8 2 4 -2 -1 -1 -2 -5 2 -1 3 15 2 12 3 -5 14 3 2 7 40 4 20 16 -11 -5 31 -52 -11 0 2 -13 -2 -6 -11
6 4 0 17 8 0 1 -0 0 -2 -3 -6 -1 -2 -1 1 0 -5 -1 -14 -4 15 2 2 -22 7 -13 -19 -14 -13 -10 -7 -3 -5 -12 -1 -4 -82 -23 -21 16 3 -1 -4 -3
-5 3 9 4 1 3 6 1 -4 -4 -3 -0 -2 1 1 -0 -6 -6 2 -3 -4 0 9 -3 -16 4 34 3 12 -28 33 -8 21 6 25 -14 -14 21 -1 -8 7 -2 2 -8 -1
-4 3 15 9 7 6 5 -3 -4 -4 -0 0 2 -1 -3 0 -1 1 -1 -1 -1 -4 2 -6 -11 -11 -19 15 1 -8 6 15 7 2 2 -3 -3 -23 1 -11 -5 -6 -8 -3 6
-8 21 -1 7 5 5 -3 -1 -2 -3 1 -6 -5 -0 -3 -4 -0 -3 -10 -8 5 4 14 3 7 -29 17 5 -5 19 3 21 18 -5 3 -0 -18 -16 -0 -16 -8 -10 -3 14 6
5 28 8 2 5 -0 2 -7 -1 1 -3 -2 -4 -5 -6 -3 3 5 -10 8 3 -1 -8 6 17 -8 -15 -3 9 3 -0 23 28 -2 -8 7 9 38 -18 -12 4 2 21 5 6
8 2 10 14 -8 0 -0 -3 0 4 -5 -2 -4 -8 3 2 8 4 3 4 7 -1 -6 -10 7 0 -1 10 4 8 9 -1 -8 20 -8 2 2 -23 1 11 1 6 -3 -11 -2
7 13 -2 -10 5 4 2 -1 -0 0 -3 -0 -3 2 2 0 2 -3 -7 -8 -1 1 2 7 -1 13 11 23 3 -8 -4 -10 16 21 -21 -31 -20 15 2 3 2 2 -8 10 3
4 -11 -3 -12 -13 -1 7 -1 3 -2 -2 0 -6 -9 3 7 -7 -7 1 3 -5 7 5 1 -6 3 2 -8 6 -11 -5 1 6 -4 18 -12 -8 36 -12 1 3 3 -4 -0 2
5 13 9 -10 10 7 7 -5 2 13 -1 -6 -6 2 4 -2 -6 -6 -1 9 0 -3 5 1 -10 -6 -7 -4 2 6 -1 -5 3 -5 -11 -4 -29 8 -5 25 -4 8 8 0 -1
-11 -4 21 -4 9 17 -2 10 -3 10 -9 1 -1 0 -7 -7 -5 6 2 -4 1 -2 6 6 -1 -2 -12 1 -5 -8 9 -3 2 -16 3 -6 -36 21 -21 5 23 -6 14 12 2
Height
3112 3108 3104 3101 3097 3092 3089 3085 3081 3078 3074 3070 3065 3062 3059 3056 3055 3055 3053 3055 3055 3060 3060 3063 3066 3070 3071 3074 3076 3080 3079 3073 3076 3080 3081 3082 3081 3082 3086 3088 3092 3093 3095 3093 3096
3107 3102 3099 3094 3090 3086 3081 3077 3073 3070 3067 3064 3060 3056 3051 3048 3046 3046 3041 3047 3051 3051 3053 3055 3059 3064 3064 3067 3069 3070 3068 3066 3074 3076 3077 3078 3078 3079 3082 3082 3086 3088 3088 3089 3093
3102 3097 3093 3089 3085 3081 3076 3072 3068 3064 3060 3055 3051 3048 3045 3041 3039 3036 3039 3040 3041 3043 3045 3047 3052 3056 3056 3061 3062 3063 3057 3067 3066 3071 3073 3073 3074 3074 3076 3078 3082 3083 3084 3087 3091
3095 3090 3085 3081 3078 3075 3070 3066 3063 3059 3053 3048 3043 3039 3036 3033 3040 3033 3034 3033 3034 3034 3036 3039 3042 3045 3047 3048 3055 3056 3056 3059 3061 3066 3067 3066 3069 3069 3070 3074 3081 3082 3081 3084 3087
3086 3081 3076 3071 3067 3065 3063 3059 3056 3052 3047 3042 3037 3031 3027 3026 3031 3030 3026 3026 3026 3028 3030 3032 3034 3038 3035 3041 3049 3046 3050 3054 3056 3057 3058 3062 3061 3064 3065 3068 3072 3074 3074 3078 3083
3079 3073 3069 3062 3058 3053 3051 3050 3048 3046 3040 3034 3029 3024 3019 3017 3019 3018 3018 3016 3018 3018 3021 3023 3027 3032 3031 3032 3037 3043 3045 3046 3049 3050 3051 3053 3055 3058 3059 3062 3065 3067 3068 3074 3079
3074 3067 3061 3056 3052 3047 3043 3041 3040 3039 3033 3027 3022 3016 3012 3013 3009 3009 3009 3010 3010 3010 3013 3017 3019 3022 3023 3027 3030 3035 3037 3039 3037 3040 3042 3048 3043 3043 3055 3059 3059 3062 3065 3069 3074
3066 3059 3052 3047 3043 3039 3034 3030 3028 3030 3026 3020 3015 3008 2997 3003 2999 3000 2999 3001 3005 3006 3007 3012 3014 3014 3015 3020 3024 3029 3031 3028 3025 3033 3034 3041 3026 3041 3048 3053 3054 3057 3060 3063 3068
3057 3050 3044 3037 3031 3028 3024 3020 3017 3016 3017 3012 3007 3001 2995 2992 2994 2994 2993 2994 2995 2999 3000 3005 3007 3007 3013 3015 3020 3021 3016 3013 3019 3024 3029 3028 3023 3035 3042 3044 3047 3051 3055 3058 3061
3049 3042 3036 3029 3021 3016 3012 3009 3007 3004 3005 3003 2998 2997 2993 2988 2989 2988 2988 2989 2990 2990 2993 2996 2999 3002 3005 3008 3000 2995 3000 3000 3003 3010 3017 3017 3017 3026 3033 3036 3040 3044 3048 3053 3054
3040 3033 3027 3020 3013 3006 3003 3000 3000 2994 2994 2995 2993 2983 2987 2982 2978 2982 2982 2982 2982 2984 2987 2992 2994 2986 2981 2987 2992 3001 3001 2996 2999 3008 3010 3008 3013 3016 3023 3028 3031 3035 3039 3045 3049
3029 3022 3014 3008 3002 2996 2995 2991 2990 2989 2981 2986 2982 2977 2974 2974 2974 2975 2975 2976 2976 2975 2983 2987 2978 2971 2985 2995 2993 2995 2994 2990 2996 3002 3004 3002 3001 3008 3013 3015 3022 3028 3032 3037 3044
3016 3011 3005 2998 2991 2986 2985 2983 2981 2978 2978 2977 2971 2970 2971 2971 2971 2972 2974 2971 2972 2972 2975 2975 2965 2979 2984 2984 2985 2984 2984 2987 2992 2996 2996 2998 2995 2997 3000 3007 3012 3016 3023 3029 3034
3004 2998 2990 2987 2983 2979 2974 2976 2975 2975 2974 2972 2968 2967 2968 2968 2968 2968 2969 2971 2971 2970 2972 2965 2964 2970 2972 2972 2978 2973 2977 2983 2987 2990 2986 2991 2979 2984 2990 2995 2999 3005 3011 3017 3025
2991 2987 2980 2975 2973 2968 2970 2970 2972 2974 2976 2970 2966 2965 2964 2968 2966 2968 2966 2967 2966 2965 2969 2957 2961 2960 2961 2959 2966 2960 2976 2977 2982 2981 2982 2979 2980 2967 2979 2981 2987 2991 2999 3005 3013
2979 2974 2969 2965 2965 2961 2963 2966 2970 2975 2969 2966 2964 2963 2964 2965 2964 2962 2962 2962 2960 2958 2954 2953 2954 2954 2950 2951 2957 2965 2970 2970 2972 2974 2961 2962 2969 2961 2966 2967 2975 2983 2989 2995 3001
2970 2964 2959 2958 2956 2957 2961 2964 2969 2969 2966 2965 2963 2960 2961 2961 2958 2958 2957 2955 2957 2954 2946 2945 2941 2941 2944 2944 2947 2953 2958 2948 2948 2958 2939 2951 2954 2951 2958 2963 2970 2974 2980 2986 2992
2965 2958 2953 2949 2951 2954 2957 2962 2962 2959 2960 2959 2959 2958 2959 2957 2955 2953 2953 2948 2948 2948 2943 2938 2930 2931 2929 2932 2935 2936 2942 2939 2930 2941 2931 2936 2930 2931 2948 2956 2962 2966 2972 2978 2983
2955 2952 2949 2948 2948 2949 2954 2955 2953 2954 2955 2957 2957 2956 2955 2954 2953 2951 2950 2941 2942 2942 2941 2933 2924 2921 2921 2922 2930 2932 2932 2938 2936 2930 2923 2919 2923 2933 2936 2943 2949 2954 2962 2965 2973
2953 2948 2944 2944 2944 2946 2949 2949 2949 2949 2951 2953 2955 2953 2953 2954 2953 2952 2946 2940 2938 2938 2935 2932 2924 2919 2917 2921 2923 2922 2932 2935 2931 2924 2910 2905 2908 2913 2925 2932 2938 2943 2948 2954 2962
2946 2945 2943 2943 2945 2946 2945 2944 2944 2946 2948 2951 2951 2951 2950 2951 2951 2950 2945 2939 2935 2934 2932 2929 2925 2917 2916 2914 2914 2920 2920 2925 2924 2921 2905 2904 2903 2911 2918 2921 2926 2932 2939 2946 2955
2944 2942 2941 2940 2942 2939 2939 2938 2941 2941 2943 2944 2944 2945 2946 2947 2946 2945 2941 2938 2934 2931 2928 2926 2918 2914 2909 2909 2909 2911 2911 2919 2914 2906 2909 2914 2900 2903 2913 2916 2920 2923 2932 2940 2949
2945 2942 2937 2939 2938 2935 2935 2935 2935 2937 2938 2939 2938 2939 2941 2942 2941 2937 2936 2935 2931 2930 2926 2924 2916 2911 2902 2904 2902 2903 2906 2904 2903 2908 2907 2913 2901 2906 2909 2913 2916 2920 2924 2931 2942
2942 2939 2938 2933 2931 2932 2930 2929 2929 2930 2932 2933 2933 2936 2936 2935 2936 2931 2931 2930 2929 2927 2925 2923 2918 2916 2911 2905 2904 2902 2901 2901 2896 2898 2903 2905 2901 2906 2909 2909 2911 2916 2922 2928 2935
2937 2932 2929 2927 2923 2923 2926 2924 2924 2924 2925 2927 2928 2930 2931 2929 2928 2928 2928 2926 2924 2924 2922 2920 2914 2913 2909 2906 2904 2901 2895 2896 2895 2895 2892 2893 2897 2904 2909 2909 2909 2913 2918 2923 2930
2932 2929 2925 2922 2917 2915 2915 2913 2917 2918 2919 2921 2923 2926 2927 2924 2925 2923 2925 2923 2921 2920 2918 2916 2913 2909 2904 2903 2900 2896 2893 2886 2887 2891 2884 2889 2896 2899 2905 2908 2911 2913 2918 2923 2928
2919 2917 2914 2911 2911 2910 2910 2910 2909 2913 2914 2916 2918 2920 2920 2920 2920 2919 2917 2916 2915 2915 2914 2912 2911 2910 2900 2901 2899 2892 2884 2883 2881 2883 2883 2883 2886 2898 2903 2904 2911 2915 2919 2925 2928